Regional Weather Roundup
Issued by NWS

Home | Current Version | Previous Version | Graphics & Text | Print | Product List | Glossary On
Versions: 1 2 3 4 5 6 7 8 9 10 11 12 13 14 15 16 17 18 19 20 21 22 23 24 25 26 27 28 29 30 31 32 33 34 35 36 37 38 39 40 41 42 43 44 45 46 47 48 49 50
000
ASUS43 KLMK 221802
RWRKY
KENTUCKY REGIONAL WEATHER ROUNDUP
NATIONAL WEATHER SERVICE LOUISVILLE KY
200 PM EDT SAT JUL 22 2017

NOTE "FAIR" INDICATES FEW OR NO CLOUDS BELOW 12,000 FEET
WITH NO SIGNIFICANT WEATHER AND/OR OBSTRUCTIONS TO VISIBILITY.

KYZ001>023-026-027-061>063-070>075-221900-
WESTERN AND SOUTH CENTRAL KENTUCKY

CITY           SKY/WX    TMP DP  RH WIND       PRES   REMARKS
PADUCAH        SUNNY     94  76  55 SW10      29.93F HX 106
HENDERSON      SUNNY     94  76  55 NW3       29.91F HX 106
OWENSBORO      MOSUNNY   94  76  55 SW9       29.92F HX 106
HOPKINSVILLE   MOSUNNY   91  76  60 W9        29.97F HX 103
BOWLING GREEN  MOSUNNY   94  75  54 SW10      29.97F HX 105
GLASGOW        NOT AVBL
$$

KYZ024-025-028>034-038-045-046-053-221900-
NORTH CENTRAL KENTUCKY

CITY           SKY/WX    TMP DP  RH WIND       PRES   REMARKS
LOUISVILLE/SDF CLOUDY    93  75  55 W8        29.91F HX 104
LOUISVILLE/LOU PTSUNNY   92  76  59 W9G20     29.92F HX 104
FORT KNOX      MOSUNNY   93  75  56 SW9       29.92F HX 104
$$

KYZ035>037-039>044-047>052-055>060-089>105-221900-
NORTHEAST KENTUCKY

CITY           SKY/WX    TMP DP  RH WIND       PRES   REMARKS
LEXINGTON      CLOUDY    92  73  53 SW18      29.94F HX 100
COVINGTON      CLOUDY    87  76  69 SW13G21   29.86F HX  97
FRANKFORT      PTSUNNY   91  76  61 SW12G18   29.91F HX 103
$$

KYZ054-064>069-076>088-106>120-221900-
SOUTHEAST KENTUCKY

CITY           SKY/WX    TMP DP  RH WIND       PRES   REMARKS
JACKSON        CLOUDY    88  73  61 VRB5      29.99F HX  95
LONDON         MOSUNNY   93  70  46 W12       30.00F HX  99
SOMERSET       CLOUDY    90  70  51 W10G18    29.99F HX  95
MIDDLESBORO    CLOUDY    92  73  53 SW6       30.00F HX 100
MONTICELLO     PTCLDY    92  77  61 W20       30.01F HX 105
$$




USA.gov is the U.S. government's official web portal to all federal, state and local government web resources and services.